Location: ????????
(55.7667°N, 37.4833°E)
Time: 10:23:00
(UTC+00:00)

ARIANE 5 R/B - Pass Details

Date: 19 May 2025
Orbit: 614 x 648 km, 98.0° (Epoch: 11 June)

Event Time Altitude Azimuth Distance (km) Brightness Sun altitude
Exits shadow 21:23:47 14° 223° (SW) 1,729 4.4 -14.3°
Maximum altitude 21:26:24 23° 268° (W) 1,320 4.2 -14.3°
Drops below altitude 10° 21:29:55 10° 322° (NW) 2,008 6.0 -14.3°
Sets 21:32:31 0° 337° (NNW) 2,926 7.3 -14.3°
